Regional Weather Roundup
Issued by NWS

Home | Current Version | Previous Version | Graphics & Text | Print | Product List | Glossary On
Versions: 1 2 3 4 5 6 7 8 9 10 11 12 13 14 15 16 17 18 19 20 21 22 23 24 25 26 27 28 29 30 31 32 33 34 35 36 37 38 39 40 41 42 43 44 45 46 47 48 49 50
000
ASUS43 KMKX 062259
RWRWI

WISCONSIN REGIONAL WEATHER ROUNDUP
NATIONAL WEATHER SERVICE MILWAUKEE/SULLIVAN WI
500 PM CST SAT FEB 06 2016

NOTE: "FAIR" INDICATES FEW OR NO CLOUDS BELOW 12,000 FEET WITH NO
SIGNIFICANT WEATHER AND/OR OBSTRUCTIONS TO VISIBILITY.

WIZ001-002-006>008-014>016-023>028-070000-
NORTHWEST WISCONSIN

CITY           SKY/WX    TMP DP  RH WIND       PRES   REMARKS
SUPERIOR ARPT  CLOUDY    36  26  67 SW15      29.83F WCI  26
ASHLAND        CLOUDY    36  24  62 SW10      29.85F WCI  28
HAYWARD        CLOUDY    32  23  69 S15       29.87F WCI  22
SIREN          CLOUDY    33  26  73 S9        29.88F WCI  26
CUMBERLAND     CLOUDY    32  25  74 S15       29.90F WCI  22
RICE LAKE      CLOUDY    33  25  72 S10       29.93F WCI  25
CHETEK         CLOUDY    32  24  73 S7        29.93F WCI  26
LADYSMITH      CLOUDY    33  24  67 S9        29.95F WCI  26
EAU CLAIRE     NOT AVBL
MENOMONIE      CLOUDY    34  25  69 S12       29.97F WCI  25
NEW RICHMOND   CLOUDY    33  26  77 S14       29.91F WCI  23
OSCEOLA        CLOUDY    34  27  77 S12G18    29.93F WCI  25
$$

WIZ003>005-009-010-017-018-070000-
NORTH CENTRAL WISCONSIN

CITY           SKY/WX    TMP DP  RH WIND       PRES   REMARKS
MANITOWISH WTR CLOUDY    32  21  65 S9        29.88F WCI  24
ARBOR VITAE    CLOUDY    33  23  67 S9G16     29.90F WCI  25
WOODRUFF       CLOUDY    33  23  67 S9G16     29.90F WCI  25
RHINELANDER    CLOUDY    30  20  66 S9        29.93F WCI  22
EAGLE RIVER    CLOUDY    30  19  63 S6        29.91F WCI  24
LAND O LAKES   CLOUDY    30  20  66 S6        29.91S WCI  24
PHILLIPS       CLOUDY    32  21  64 S10G20    29.90F WCI  24
TOMAHAWK       CLOUDY    31  21  67 S5        29.95S WCI  26
MEDFORD        CLOUDY    30  22  73 S10       29.95F WCI  21
MERRILL        CLOUDY    32  22  67 SW8       29.98S WCI  25
$$

WIZ029-030-035-036-043>047-070000-
CENTRAL WISCONSIN

CITY           SKY/WX    TMP DP  RH WIND       PRES   REMARKS
WAUSAU         CLOUDY    33  22  63 S7        29.97F WCI  27
MOSINEE        PTCLDY    30  25  80 S9        30.00F WCI  22
MARSHFIELD     PTCLDY    33  20  58 SW10      29.98F WCI  25
STEVENS POINT  MOCLDY    30  22  72 SW9       30.02F WCI  22
WAUPACA        CLEAR     35  25  68 S6        30.05F WCI  30
WAUTOMA        NOT AVBL
WISC RAPIDS    CLOUDY    32  22  66 SW10      30.04S WCI  24
CAMP DOUGLAS   NOT AVBL
$$

WIZ011>013-019>022-031-037>040-048>050-070000-
NORTHEAST WISCONSIN

CITY           SKY/WX    TMP DP  RH WIND       PRES   REMARKS
ANTIGO         CLOUDY    27  21  76 SW7       29.98S WCI  20
SHAWANO        CLOUDY    33  25  72 SW3       30.04F
OCONTO         CLOUDY    30  25  80 SW6       30.05F WCI  24
STURGEON BAY   CLOUDY    28  21  74 SW9       30.07F WCI  20
GREEN BAY      CLOUDY    30  24  78 SW8       30.06F WCI  22
MANITOWOC      NOT AVBL
APPLETON       MOCLDY    30  23  74 S9        30.04F WCI  22
CLINTONVILLE   CLOUDY    32  25  74 SW7       30.04F WCI  26
OSHKOSH        MOCLDY    30  23  75 S10       30.07F WCI  21
$$

WIZ032>034-041-042-053>061-070000-
SOUTHWEST WISCONSIN

CITY           SKY/WX    TMP DP  RH WIND       PRES   REMARKS
LA CROSSE      PTCLDY    32  24  72 S10       30.05F WCI  24
SPARTA         PTCLDY    33  25  70 S5        30.06F WCI  29
VIROQUA        PTCLDY    30  25  79 S8        30.05F WCI  23
BOSCOBEL       CLEAR     32  27  81 SW8       30.11F WCI  25
PRAIRIE DU CHI CLOUDY    32  26  77 S6        30.11F WCI  26
PLATTEVILLE    CLOUDY    31  28  90 SW12      30.12S WCI  22
$$

WIZ056-057-062-063-064-067-068-070000-
SOUTH CENTRAL WISCONSIN

CITY           SKY/WX    TMP DP  RH WIND       PRES   REMARKS
REEDSBURG      CLEAR     32  25  74 S7        30.07F WCI  26
BARABOO/DELLS  PTCLDY    32  24  71 SW7       30.07F WCI  26
LONE ROCK      CLEAR     32  24  72 SW9       30.10F WCI  24
MINERAL POINT  CLOUDY    32  30  93 SW8       30.10S WCI  25
MADISON        PTCLDY    31  25  78 SW5       30.10F WCI  26
MIDDLETON      MOCLDY    32  27  80 SW10      30.10F WCI  24
WATERTOWN      CLOUDY    32  28  86 SW8       30.11S WCI  24
MONROE         CLOUDY    32  30  93 SW7       30.11F WCI  26
JANESVILLE     CLEAR     36  28  75 W5        30.12F WCI  32
$$

WIZ051-052-058>065-066-070>072-070000-
SOUTHEAST WISCONSIN

CITY           SKY/WX    TMP DP  RH WIND       PRES   REMARKS
MILWAUKEE      CLOUDY    35  26  69 W12       30.12S WCI  27
WAUKESHA       PTCLDY    30  25  80 W10       30.12F WCI  21
MILWAUKEE/TIMM PTCLDY    32  25  74 W7        30.12S WCI  26
RACINE         CLOUDY    35  27  72 W5        30.14S WCI  31
BURLINGTON     CLEAR     34  26  70 W8        30.13R WCI  28
KENOSHA        CLEAR     36  27  69 W7        30.12F WCI  30
FOND DU LAC    CLEAR     31  24  75 SW10      30.08F WCI  22
SHEBOYGAN      CLOUDY    31  24  75 SW7       30.09S WCI  24
WEST BEND      CLOUDY    32  27  80 SW10      30.10S WCI  24
JUNEAU         PTCLDY    30  25  81 SW8       30.11F WCI  23
$$

LSZ147-162-070000-
LAKE SUPERIOR

STATION/POSITION TIME  TEMP    WIND        PRES    WAVE
                       AIR SEA DIR/SP/G            HT/PER
                 (UTC) (F)     (DEG/KT/KT) (MB)    (FT/S)
DEVILS ISLAND    2200   33     160/  5/  7 1011.7F
PORT WING        2131          200/  8/ 17   N/A
SAXON HARBOR     2200   38                 1011.2F
$$

LMZ867-665-643>646-070000-
LAKE MICHIGAN

STATION/POSITION TIME  TEMP    WIND        PRES    WAVE
                       AIR SEA DIR/SP/G            HT/PER
                 (UTC) (F)     (DEG/KT/KT) (MB)    (FT/S)
CHAMBERS ISLAND  2200   29     190/  4/  8 1017.6F
ALGOMA LAKESHORE 2111          260/ 10/ 13   N/A
KEWAUNEE LAKESHO 2200   30                 1017.8S
SHEBOYGAN LAKESH 2200   32     230/  9/ 10 1020.1F
PORT WASHINGTON  2200   34     240/  8/ 14 1020.7
MILWAUKEE LAKESH 2210   34     250/  7/  8   N/A
KENOSHA   LAKESH 2200   38     240/  7/ 13 1020.3F
$$

TC  - TEMPERATURE IN CELSIUS
VSB - VISIBILITY IN STATUTE MILES
WCI - WIND CHILL INDEX
HX  - HEAT INDEX




USA.gov is the U.S. government's official web portal to all federal, state and local government web resources and services.